Location: Lake Sonoma
(38.7200°N, 123.0564°W)
Time: 06:57:28
(UTC-08:00)

ISS - Visible Passes

Search period start: 19 January 2017 00:00
Search period end: 29 January 2017 00:00
Orbit: 399 x 410 km, 51.6° (Epoch: 20 January)

Date Brightness Start Highest point End Pass type
(mag) Time Alt. Az. Time Alt. Az. Time Alt. Az.
19 Jan -2.8 06:04:22 37° WSW 06:04:56 42° SW 06:08:01 10° SSE visible
20 Jan -1.1 05:14:38 24° SE 05:14:38 24° SE 05:16:02 10° SE visible
21 Jan -1.2 05:57:42 15° SSW 05:57:42 15° SSW 05:58:55 10° S visible
25 Jan -0.9 19:04:40 10° S 19:05:21 13° SSE 19:05:21 13° SSE visible
26 Jan -0.5 19:47:39 10° SW 19:48:28 16° SW 19:48:28 16° SW visible
27 Jan -3.0 18:55:31 10° SSW 18:58:40 46° SE 18:58:47 46° SE visible
28 Jan -1.8 18:03:51 10° S 18:06:29 23° SE 18:09:01 11° E visible
28 Jan -1.2 19:39:48 10° W 19:41:42 26° WNW 19:41:42 26° WNW visible
